Date,TemperatureHighF,TemperatureAvgF,TemperatureLowF,DewpointHighF,DewpointAvgF,DewpointLowF,HumidityHigh,HumidityAvg,HumidityLow,PressureMaxIn,PressureMinIn,WindSpeedMaxMPH,WindSpeedAvgMPH,GustSpeedMaxMPH,PrecipitationSumIn
2013-1-1,30.2,22.3,9.7,23.5,8.7,-3.2,88,58,35,29.82,29.55,5,2,13,0.00
2013-1-2,21.3,9.4,-0.8,2.5,-4.4,-11.7,76,54,36,30.00,29.79,8,1,13,0.00
2013-1-3,23.8,10.0,-4.8,0.8,-2.8,-11.1,80,58,34,30.03,29.89,1,0,11,0.00
2013-1-4,34.8,16.6,-5.8,22.4,9.2,-10.1,87,73,55,29.88,29.67,9,2,13,0.00
2013-1-5,33.6,26.5,9.6,23.3,13.8,4.3,82,60,38,30.21,29.67,9,2,22,0.00
2013-1-6,35.5,19.3,7.9,20.7,13.4,4.2,85,78,55,30.18,29.86,2,0,4,0.00
2013-1-7,30.8,19.7,6.7,19.1,10.2,3.9,92,68,35,30.35,30.01,5,1,9,0.00
2013-1-8,40.8,25.6,8.3,24.2,18.3,4.1,94,75,47,30.31,30.13,10,2,19,0.00
2013-1-9,33.9,22.1,10.3,29.4,19.0,7.5,93,88,80,30.33,29.83,4,0,4,0.00
2013-1-10,43.6,36.6,25.1,31.3,23.7,17.4,89,61,44,30.47,29.85,6,3,16,0.01
2013-1-11,35.5,26.4,16.4,30.2,21.0,13.4,91,80,47,30.46,30.19,2,0,8,0.00
2013-1-12,41.4,36.3,32.3,39.0,34.9,30.4,97,95,89,30.20,30.05,3,1,5,0.05
2013-1-13,41.7,38.5,35.5,41.2,37.7,34.7,98,97,96,30.10,29.88,4,1,6,0.02
2013-1-14,57.2,43.4,32.8,49.3,34.9,21.5,98,74,37,30.16,29.80,5,1,6,0.01
2013-1-15,38.5,32.3,23.4,25.4,21.8,18.8,89,66,49,30.26,30.14,4,0,5,0.00
2013-1-16,29.3,28.0,25.1,26.6,23.8,18.3,94,85,65,30.22,29.72,3,0,4,0.00
2013-1-17,38.8,23.9,13.3,31.9,14.5,-4.6,96,70,33,30.08,29.71,5,1,11,0.10
2013-1-18,17.6,9.5,0.7,-2.7,-6.9,-15.4,76,49,27,30.36,30.05,5,1,10,0.00
2013-1-19,35.8,24.7,5.4,24.3,14.4,-3.5,83,65,50,30.30,29.81,7,1,9,0.00
2013-1-20,45.6,35.5,21.9,31.2,22.3,6.4,88,61,33,29.80,29.38,12,5,20,0.14
2013-1-21,26.8,18.4,7.8,9.7,0.6,-5.2,65,47,25,29.99,29.79,5,1,10,0.00
2013-1-22,18.3,11.7,5.0,9.6,-1.2,-15.8,80,56,34,29.98,29.72,5,1,11,0.00
2013-1-23,5.6,0.9,-3.9,-14.3,-17.9,-20.4,56,40,31,30.05,29.97,6,2,13,0.00
2013-1-24,11.8,2.2,-6.8,-10.4,-15.3,-19.7,60,44,29,30.08,29.89,7,2,13,0.00
2013-1-25,17.7,7.9,-2.1,1.9,-5.9,-11.8,74,54,35,30.17,30.02,4,1,11,0.00
2013-1-26,21.3,12.7,3.4,0.9,-4.3,-9.1,71,48,29,30.08,29.94,4,1,7,0.00
2013-1-27,25.5,13.9,3.5,1.4,-4.0,-8.7,66,45,29,30.37,30.07,4,1,6,0.00
2013-1-28,27.0,18.1,5.0,17.5,2.4,-9.6,90,55,23,30.38,30.03,5,1,6,0.00
2013-1-29,37.0,24.9,13.3,27.8,20.3,10.8,93,83,59,30.17,30.02,3,0,3,0.07
2013-1-30,49.9,39.4,29.6,49.4,38.5,27.8,98,96,93,30.09,29.37,5,2,7,0.34
2013-1-31,54.3,44.5,29.2,53.2,34.9,10.6,98,72,40,29.38,28.77,23,12,32,0.23
2013-2-1,28.8,23.4,13.8,14.5,5.2,-0.8,55,45,36,29.97,29.38,10,4,24,0.00
2013-2-2,24.5,17.8,10.0,11.6,3.1,-2.8,72,53,37,30.14,29.97,7,2,12,0.00
2013-2-3,27.4,22.4,15.8,14.8,11.8,9.4,80,64,50,30.00,29.65,4,1,8,0.00
2013-2-4,27.8,21.1,14.0,12.1,5.0,-6.5,76,51,32,29.80,29.59,9,2,14,0.00
2013-2-5,25.1,14.2,1.3,6.6,-2.7,-7.5,77,49,25,29.98,29.81,3,1,7,0.00
2013-2-6,34.8,21.3,10.5,20.4,7.8,-8.0,73,57,32,30.22,29.87,8,2,12,0.00
2013-2-7,20.3,12.5,5.5,-6.6,-10.3,-13.5,51,36,22,30.53,30.22,4,1,12,0.00
2013-2-8,11.8,9.6,6.2,8.2,1.0,-12.8,87,70,34,30.52,29.86,8,3,16,0.00
2013-2-9,17.6,13.4,8.8,11.3,7.5,5.5,88,78,62,30.07,29.66,10,6,23,0.00
2013-2-10,37.9,20.1,5.1,6.5,1.5,-3.8,80,48,20,30.30,30.07,3,0,20,0.00
2013-2-11,33.4,19.0,0.8,31.9,15.6,-3.4,95,86,65,30.30,29.52,2,0,3,0.05
2013-2-12,44.7,34.5,25.8,34.8,28.3,24.6,96,79,55,29.71,29.48,7,2,11,0.25
2013-2-13,45.3,35.3,27.0,27.6,23.0,19.9,81,62,40,29.75,29.68,5,1,12,0.00
2013-2-14,42.7,32.8,23.3,24.3,20.1,16.9,80,61,36,29.94,29.66,3,1,6,0.00
2013-2-15,45.3,33.7,19.5,34.3,26.2,-99.9,96,77,55,29.92,29.84,7,-5,11,0.00
2013-2-16,35.4,31.5,26.7,31.7,27.6,12.7,96,86,55,29.89,29.72,4,1,8,0.03
2013-2-17,26.7,20.4,16.2,16.6,9.8,2.4,87,64,48,29.72,29.15,7,4,18,0.00
2013-2-18,29.6,20.2,12.0,6.5,1.4,-4.2,56,44,35,29.99,29.41,9,5,20,0.00
2013-2-19,42.4,29.7,15.7,41.1,12.2,-4.4,95,52,21,30.05,29.52,8,2,20,0.37
2013-2-20,42.8,34.0,26.5,41.7,24.6,14.1,96,70,52,29.58,29.36,8,4,12,0.05
2013-2-21,28.0,24.2,19.1,21.1,12.3,6.4,77,60,48,30.09,29.58,6,2,10,0.00
2013-2-22,40.3,31.1,24.0,21.6,19.2,16.9,80,62,41,30.34,30.09,6,1,10,0.00
2013-2-23,36.0,30.4,25.2,32.1,26.1,19.4,94,84,75,30.30,29.96,4,1,7,0.00
2013-2-24,30.5,29.2,27.1,28.9,27.7,25.5,95,94,93,29.97,29.74,3,1,7,0.00
2013-2-25,42.9,32.0,23.0,29.9,26.1,21.5,95,81,45,30.19,29.86,4,0,7,0.38
2013-2-26,44.3,34.8,28.0,31.0,27.4,24.3,95,76,46,30.31,30.19,4,1,5,0.01
2013-2-27,37.3,31.8,26.9,32.1,28.9,24.6,96,89,78,30.20,29.64,8,3,15,0.02
2013-2-28,39.9,34.6,30.5,38.0,33.3,28.8,97,95,91,29.64,29.50,4,2,11,0.29
2013-3-1,35.0,32.3,30.6,31.6,29.5,28.2,96,89,79,29.62,29.49,4,2,8,0.01
2013-3-2,42.5,33.9,29.4,31.3,29.6,27.6,96,85,58,29.60,29.55,3,0,8,0.07
2013-3-3,43.9,35.6,30.1,32.4,29.2,25.4,96,79,59,29.57,29.47,2,1,6,0.14
2013-3-4,34.9,31.5,29.3,28.2,24.5,21.1,85,75,65,29.65,29.45,4,2,9,0.01
2013-3-5,44.3,37.2,30.2,35.0,30.6,23.3,90,77,65,30.07,29.65,6,3,11,0.00
2013-3-6,38.5,34.3,30.8,31.9,28.6,24.3,93,80,65,30.21,30.07,8,4,16,0.01
2013-3-7,35.3,32.7,30.5,24.9,23.5,22.6,77,69,61,30.17,30.04,8,5,15,0.00
2013-3-8,45.8,36.3,28.6,25.6,21.6,18.0,88,57,33,30.16,30.00,9,6,17,0.00
2013-3-9,51.1,37.1,24.6,23.1,21.5,19.4,87,56,31,30.33,30.14,6,2,17,0.00
2013-3-10,43.9,31.4,19.6,29.6,22.8,-99.9,93,75,51,30.37,30.25,7,-4,9,0.00
2013-3-11,46.0,38.3,33.1,37.7,33.4,29.5,93,83,62,30.26,30.09,7,4,10,0.00
2013-3-12,49.3,43.9,39.3,48.2,42.4,37.4,97,94,90,30.10,29.68,12,6,17,0.74
2013-3-13,49.5,42.2,29.8,46.8,35.9,25.6,97,80,55,29.68,29.60,10,2,14,0.01
2013-3-14,39.0,29.7,19.9,28.5,20.5,5.6,95,70,44,29.70,29.56,6,2,8,0.00
2013-3-15,35.5,24.3,15.1,17.2,8.7,2.8,78,52,31,29.74,29.55,7,2,12,0.00
2013-3-16,36.4,28.1,19.9,19.4,12.2,7.7,84,53,31,29.85,29.57,5,2,12,0.00
2013-3-17,31.4,22.1,12.3,13.9,5.4,-1.7,88,52,30,30.26,29.84,7,2,11,0.00
2013-3-18,37.0,23.4,7.5,20.3,5.1,-1.6,79,49,20,30.39,30.23,8,2,11,0.00
2013-3-19,30.8,26.9,21.9,27.3,23.0,18.9,93,85,66,30.23,29.63,9,3,14,0.00
2013-3-20,36.5,27.3,16.9,24.4,20.2,14.7,93,76,49,29.66,29.55,8,3,11,0.06
2013-3-21,42.2,30.0,17.5,20.1,15.0,-99.9,86,59,25,29.71,29.56,8,-9,11,0.05
2013-3-22,40.1,28.9,17.8,18.9,16.3,13.1,92,62,34,29.60,29.53,9,1,12,0.05
2013-3-23,40.9,31.9,21.9,23.2,18.7,13.4,71,59,43,29.60,29.44,10,4,21,0.00
2013-3-24,47.2,36.5,28.2,25.3,23.3,21.2,82,60,39,29.74,29.59,4,1,21,0.00
2013-3-25,43.2,35.2,24.6,31.2,25.8,21.7,90,70,53,29.73,29.54,6,2,10,0.00
2013-3-26,50.4,39.0,29.0,26.7,24.0,21.5,77,56,36,29.68,29.52,6,2,11,0.00
2013-3-27,47.2,36.0,23.9,36.3,29.0,21.1,95,77,48,29.82,29.66,4,1,9,0.14
2013-3-28,51.0,39.5,31.8,36.7,32.2,28.5,97,78,44,29.92,29.82,3,1,6,0.14
2013-3-29,55.3,42.6,29.8,37.4,30.7,25.2,93,65,39,29.96,29.89,5,1,9,0.00
2013-3-30,55.8,40.1,25.5,34.0,21.6,14.0,95,55,20,30.04,29.92,5,1,9,0.00
2013-3-31,51.2,39.2,20.5,36.6,23.7,15.8,89,58,25,30.06,29.80,10,4,14,0.00
2013-4-1,55.1,41.5,33.1,42.5,36.6,17.0,95,83,51,29.79,29.42,12,3,14,0.34
2013-4-2,38.5,30.9,23.1,18.5,13.3,7.6,68,49,30,29.77,29.63,11,4,20,0.34
2013-4-3,41.9,34.1,27.5,17.1,11.8,7.5,57,40,26,30.00,29.75,10,5,16,0.00
2013-4-4,51.6,38.7,28.0,28.2,14.5,6.1,72,40,18,30.16,29.91,11,4,16,0.00
2013-4-5,57.7,43.4,34.7,29.8,23.6,18.1,66,48,22,29.90,29.58,8,4,12,0.00
2013-4-6,41.0,32.0,23.6,22.8,7.8,1.5,60,38,20,30.29,29.77,7,3,18,0.00
2013-4-7,45.4,35.6,21.1,37.5,24.2,7.4,80,64,40,30.29,29.89,16,6,20,0.00
2013-4-8,58.0,46.5,32.4,38.4,33.4,29.3,95,64,35,30.08,29.84,7,2,9,0.00
2013-4-9,45.7,40.9,35.4,42.3,38.1,30.1,96,90,79,30.07,29.84,4,1,7,0.20
2013-4-10,56.7,45.1,37.3,46.9,41.7,36.3,97,89,59,29.94,29.83,4,1,6,0.23
2013-4-11,52.9,44.3,36.8,43.0,27.8,14.1,97,58,24,30.14,29.82,6,2,7,0.05
2013-4-12,37.2,33.9,32.3,31.1,21.9,11.9,95,65,39,30.22,29.85,5,2,8,0.12
2013-4-13,46.5,38.0,31.8,38.5,34.2,30.6,96,87,69,29.86,29.75,3,1,7,0.22
2013-4-14,50.7,41.9,35.3,42.2,35.9,29.4,97,81,51,30.13,29.84,5,1,8,0.04
2013-4-15,56.7,41.5,27.3,38.1,33.4,25.9,95,75,39,30.36,30.14,10,3,15,0.00
2013-4-16,51.7,45.7,37.2,48.0,40.0,36.2,96,81,63,30.37,29.89,14,6,22,0.00
2013-4-17,60.9,51.7,36.6,51.2,32.8,22.7,87,51,26,30.30,29.89,6,2,11,0.00
2013-4-18,48.7,40.9,27.5,38.4,27.4,18.7,89,61,32,30.43,30.10,10,4,14,0.00
2013-4-19,69.3,55.5,45.9,57.9,50.5,38.8,96,84,66,30.10,29.56,14,8,21,0.00
2013-4-20,59.2,52.6,40.4,58.1,40.0,22.4,97,67,34,30.09,29.50,12,4,15,0.29
2013-4-21,51.8,40.8,30.4,25.4,19.6,13.0,68,44,23,30.66,30.10,5,2,11,0.00
2013-4-22,52.1,38.5,25.8,31.2,21.0,12.3,93,54,23,30.76,30.61,8,2,12,0.00
2013-4-23,45.9,36.6,26.4,39.2,33.2,24.9,95,88,70,30.61,30.16,5,2,10,0.00
2013-4-24,65.3,49.0,41.0,52.1,44.8,39.1,96,86,62,30.16,29.72,9,3,11,0.03
2013-4-25,62.4,52.6,38.9,49.8,35.8,25.0,95,58,26,30.24,29.71,8,3,13,0.04
2013-4-26,59.8,45.5,29.5,33.6,29.9,25.1,89,58,31,30.38,30.24,8,2,13,0.00
2013-4-27,62.4,45.9,28.6,40.8,33.9,27.3,96,68,30,30.37,30.25,8,2,13,0.00
2013-4-28,65.7,49.1,29.6,42.0,32.6,28.2,97,60,25,30.29,30.19,9,3,14,0.00
2013-4-29,63.1,48.8,32.0,45.3,37.5,29.7,94,68,35,30.23,30.16,10,3,18,0.00
2013-4-30,68.4,50.2,31.9,46.2,34.5,22.5,96,62,24,30.34,30.20,8,2,18,0.00
2013-5-1,71.4,52.0,29.9,38.2,32.4,27.8,96,55,21,30.41,30.32,8,2,12,0.00
2013-5-2,68.5,49.9,35.1,47.3,38.7,33.4,96,69,40,30.48,30.36,8,2,13,0.00
2013-5-3,68.4,49.6,31.4,46.8,39.4,30.0,96,71,42,30.51,30.32,7,2,8,0.00
2013-5-4,67.9,48.1,34.0,44.3,38.0,32.2,97,72,27,30.36,30.25,9,2,13,0.00
2013-5-5,63.2,47.6,29.7,41.6,36.8,28.8,97,70,38,30.30,30.20,8,3,11,0.00
2013-5-6,65.2,49.1,34.4,47.5,41.8,33.1,97,79,44,30.23,30.11,10,4,13,0.00
2013-5-7,72.7,55.7,44.1,54.8,48.5,43.2,97,80,40,30.13,30.04,10,4,14,0.00
2013-5-8,73.5,59.7,44.2,61.6,54.3,43.4,98,84,60,30.18,30.07,10,4,16,0.00
2013-5-9,56.9,54.4,52.7,55.1,53.2,52.2,98,96,94,30.07,29.87,4,1,8,0.54
2013-5-10,75.4,59.4,51.2,62.5,55.6,50.7,98,88,56,29.91,29.85,7,1,9,0.04
2013-5-11,63.6,56.6,51.3,60.0,55.1,50.2,97,95,88,29.87,29.63,6,3,9,0.41
2013-5-12,67.5,58.7,43.6,60.6,54.5,40.6,98,87,45,29.67,29.48,6,2,8,0.06
2013-5-13,57.1,48.3,39.7,39.6,31.6,27.2,92,54,35,29.96,29.68,11,5,16,0.00
2013-5-14,57.5,47.2,34.0,35.0,31.6,27.9,86,57,33,29.98,29.89,4,1,9,0.00
2013-5-15,62.2,48.0,32.3,48.5,35.3,22.7,95,67,24,29.97,29.61,14,4,21,0.19
2013-5-16,77.2,60.8,47.6,56.7,45.8,33.3,98,65,23,29.74,29.51,9,3,16,0.00
2013-5-17,64.9,54.6,42.9,47.0,40.2,35.2,88,60,35,30.16,29.74,5,2,9,0.00
2013-5-18,68.0,51.1,36.5,46.4,41.7,35.2,97,73,40,30.30,30.15,8,2,12,0.00
2013-5-19,66.5,52.3,42.7,52.5,47.0,41.1,96,83,54,30.32,30.18,6,2,9,0.07
2013-5-20,73.4,58.5,49.3,63.2,54.6,48.1,97,88,57,30.18,29.87,7,2,11,0.46
2013-5-21,57.3,52.0,48.7,56.5,50.6,47.6,97,95,93,30.08,29.86,5,2,8,0.27
2013-5-22,58.3,51.9,47.9,53.6,50.1,47.1,98,94,84,29.98,29.86,4,1,7,0.30
2013-5-23,63.0,56.4,48.6,61.6,54.8,47.8,98,94,86,29.90,29.75,6,3,8,0.09
2013-5-24,67.9,59.2,48.3,65.8,58.1,46.8,98,96,92,29.80,29.59,6,4,13,0.81
2013-5-25,49.8,47.1,44.4,48.7,46.1,43.6,98,96,94,29.79,29.62,6,3,13,0.59
2013-5-26,55.3,48.1,43.9,47.0,43.0,37.4,98,84,61,29.93,29.57,4,2,12,0.22
2013-5-27,68.3,52.8,35.6,43.4,37.3,32.1,96,61,27,30.11,29.92,6,2,11,0.00
2013-5-28,71.8,54.7,35.6,46.5,38.8,34.1,97,62,26,30.19,30.12,10,3,12,0.00
2013-5-29,56.0,51.9,43.9,54.9,50.8,41.9,98,96,87,30.16,29.96,5,1,11,0.08
2013-5-30,86.4,71.1,54.5,67.8,60.0,53.9,99,73,39,29.98,29.91,6,2,14,0.00
2013-5-31,91.4,75.2,55.7,73.1,63.8,54.6,98,71,43,30.00,29.82,9,2,11,0.01
2013-6-1,93.3,77.4,60.1,73.4,64.3,57.1,97,68,30,29.85,29.73,10,2,17,0.00
2013-6-2,84.1,74.1,66.0,73.4,67.2,63.0,96,80,59,29.75,29.60,11,4,19,0.14
2013-6-3,78.6,68.0,60.7,67.0,63.8,51.7,98,87,62,29.75,29.64,9,3,12,0.01
2013-6-4,66.0,58.2,47.3,52.0,45.4,41.1,96,65,43,30.00,29.72,6,2,12,0.00
2013-6-5,72.5,59.1,45.6,48.4,43.3,34.7,92,60,26,30.12,30.00,8,2,11,0.00
2013-6-6,72.8,58.2,44.2,52.7,47.0,38.4,97,71,32,30.17,30.10,5,1,8,0.00
2013-6-7,61.2,55.1,50.6,52.5,50.0,43.8,97,84,55,30.10,29.91,4,1,7,0.55
2013-6-8,70.7,59.8,52.3,61.5,56.3,51.5,97,89,69,29.93,29.61,5,2,7,0.91
2013-6-9,74.2,64.3,56.3,62.6,58.6,54.6,98,83,55,30.10,29.92,6,1,8,0.00
2013-6-10,71.6,60.9,49.9,61.1,54.8,49.1,98,82,49,30.17,30.00,7,2,7,0.00
2013-6-11,57.1,55.3,54.1,55.7,54.0,52.8,97,95,93,30.00,29.50,4,1,7,0.83
2013-6-12,60.0,56.9,53.7,58.2,55.4,52.9,97,95,89,29.72,29.47,4,1,9,0.30
2013-6-13,71.8,58.7,46.1,57.8,52.0,45.6,99,81,44,29.75,29.68,5,1,8,0.00
2013-6-14,78.7,62.6,52.6,59.4,53.9,49.2,98,77,38,29.70,29.59,5,1,8,0.00
2013-6-15,77.0,63.0,46.7,52.6,46.1,40.3,98,60,30,29.84,29.68,5,1,12,0.00
2013-6-16,76.7,61.9,45.2,57.7,52.7,43.7,97,74,44,29.85,29.65,8,2,14,0.00
2013-6-17,81.5,65.3,52.9,65.0,58.7,52.1,98,82,43,29.81,29.67,10,2,13,0.24
2013-6-18,66.7,60.4,53.1,59.7,54.9,49.3,98,83,57,29.93,29.80,3,0,4,0.01
2013-6-19,75.7,61.9,48.4,54.3,48.9,43.2,98,67,32,30.09,29.88,3,1,7,0.00
2013-6-20,76.2,61.9,45.0,54.7,48.4,43.1,96,66,33,30.21,30.09,8,2,13,0.00
2013-6-21,81.1,63.6,47.9,60.7,53.8,46.8,98,75,37,30.18,30.11,7,1,10,0.00
2013-6-22,84.5,67.7,53.9,67.5,61.7,52.8,98,83,44,30.15,30.05,4,1,6,0.04
2013-6-23,80.5,70.3,66.2,72.2,67.4,65.6,98,91,72,30.07,29.90,5,2,7,0.17
2013-6-24,90.7,77.3,63.9,74.0,68.7,63.3,98,77,48,29.91,29.75,5,1,11,0.01
2013-6-25,89.2,75.1,66.1,73.6,68.0,64.6,97,80,51,29.80,29.65,7,1,9,0.64
2013-6-26,78.9,68.2,59.3,72.5,66.0,58.4,98,93,78,29.83,29.64,6,1,11,0.90
2013-6-27,68.7,60.5,56.1,64.5,59.0,55.3,98,95,86,29.83,29.77,4,2,11,0.15
2013-6-28,66.5,61.0,57.0,65.9,60.4,56.2,99,98,97,29.79,29.49,5,2,9,1.01
2013-6-29,76.5,67.9,62.8,72.0,66.0,61.6,99,94,84,29.63,29.49,9,3,13,0.00
2013-6-30,85.3,71.4,61.3,72.0,67.0,60.7,99,87,52,29.87,29.62,9,2,11,0.04
2013-7-1,75.3,70.4,63.5,72.4,68.4,62.9,98,94,85,30.04,29.86,3,0,4,0.02
2013-7-2,70.5,62.2,58.2,69.9,61.4,57.4,98,97,95,30.17,30.02,3,1,6,0.32
2013-7-3,82.8,67.2,59.4,74.6,64.7,58.8,99,92,75,30.15,30.03,6,1,9,0.04
2013-7-4,90.1,77.6,64.0,78.2,71.7,63.4,99,84,57,30.10,29.98,7,1,9,0.00
2013-7-5,92.3,80.1,66.8,77.9,71.7,66.5,99,78,53,30.05,29.92,8,2,11,0.00
2013-7-6,89.4,78.8,67.5,76.4,70.4,62.3,99,78,54,29.96,29.86,3,1,8,0.00
2013-7-7,88.3,76.2,63.4,74.6,67.5,61.4,95,76,53,29.92,29.84,6,1,9,0.00
2013-7-8,73.3,70.3,66.7,70.8,67.2,62.5,98,90,76,30.02,29.83,3,1,4,0.23
2013-7-9,75.1,67.3,63.3,69.1,64.7,62.1,98,92,78,30.08,30.01,4,1,8,0.42
2013-7-10,68.9,64.4,61.4,65.5,63.0,60.8,98,96,88,30.04,29.78,4,2,8,0.02
2013-7-11,72.9,70.9,66.6,70.7,69.0,64.9,97,94,88,29.91,29.81,1,0,3,0.00
2013-7-12,80.8,68.5,59.1,65.0,60.2,57.0,96,77,48,30.16,29.91,3,1,5,0.00
2013-7-13,82.5,69.3,54.9,67.3,60.5,54.3,98,76,48,30.26,30.16,6,1,8,0.00
2013-7-14,90.3,74.8,59.8,73.0,67.1,58.9,98,79,52,30.23,30.11,4,1,9,0.00
2013-7-15,93.3,78.8,62.9,73.5,68.9,62.3,99,75,46,30.13,30.00,4,1,6,0.00
2013-7-16,90.0,78.2,66.9,76.9,70.0,65.4,97,78,53,30.10,30.03,4,0,5,0.00
2013-7-17,87.2,75.6,63.6,75.9,69.9,62.7,98,84,64,30.11,29.89,7,2,10,0.66
2013-7-18,87.3,75.9,68.4,74.4,69.9,66.2,99,83,59,29.95,29.86,8,2,13,0.01
2013-7-19,93.0,80.6,69.5,78.0,72.5,68.2,98,78,54,29.88,29.57,14,4,21,0.01
2013-7-20,88.0,77.8,64.8,72.8,69.2,63.3,96,76,52,29.72,29.53,10,3,12,0.08
2013-7-21,77.2,67.9,58.1,63.9,60.2,55.7,98,78,54,29.97,29.73,8,2,14,0.00
2013-7-22,73.0,65.4,58.8,66.1,61.2,57.4,98,87,65,30.00,29.89,3,1,10,0.00
2013-7-23,69.3,63.7,58.5,67.2,62.6,57.4,98,96,92,29.88,29.49,1,0,3,1.08
2013-7-24,83.3,67.8,55.7,72.6,62.5,50.3,99,84,63,29.93,29.51,4,1,11,0.11
2013-7-25,73.5,62.7,51.0,63.3,55.3,48.8,92,78,58,30.07,29.93,3,1,11,0.00
2013-7-26,70.9,65.3,61.3,66.0,62.5,60.2,97,91,84,30.05,29.85,4,2,9,0.13
2013-7-27,84.3,70.4,59.8,70.3,63.3,58.9,98,80,54,29.97,29.86,6,1,9,0.00
2013-7-28,76.2,66.3,57.5,68.0,63.6,56.8,98,91,72,29.99,29.95,5,1,8,0.00
2013-7-29,78.0,67.5,62.0,69.8,65.0,61.4,98,92,74,30.00,29.93,5,1,9,0.19
2013-7-30,79.9,68.5,58.2,66.2,60.4,55.0,99,78,43,30.01,29.95,4,0,9,0.00
2013-7-31,81.0,66.9,53.4,62.8,58.5,52.8,99,77,46,30.07,29.98,6,1,10,0.00
2013-8-1,78.9,67.3,53.9,67.4,61.5,53.3,98,83,59,29.99,29.83,8,3,15,0.00
2013-8-2,78.2,66.0,59.9,68.2,63.5,59.3,98,92,69,29.82,29.69,5,2,10,1.11
2013-8-3,77.6,65.2,57.0,66.1,60.2,55.3,99,86,57,29.77,29.67,7,1,12,0.11
2013-8-4,77.5,63.8,53.0,63.5,57.2,52.5,99,81,48,29.78,29.68,8,1,8,0.01
2013-8-5,73.7,61.4,50.2,56.3,51.3,43.9,96,72,47,29.98,29.78,4,1,14,0.00
2013-8-6,78.1,61.6,44.9,57.8,51.1,43.9,98,72,41,30.10,29.98,8,2,10,0.00
2013-8-7,76.5,62.8,46.7,63.0,55.8,45.8,98,80,47,30.14,30.06,7,2,10,0.00
2013-8-8,76.1,66.4,60.5,70.0,63.8,57.5,97,91,80,30.07,29.95,5,2,10,0.09
2013-8-9,71.9,68.0,65.4,70.7,67.2,64.7,99,97,95,29.96,29.67,10,3,16,2.72
2013-8-10,79.8,69.6,55.6,68.5,58.5,49.1,99,72,36,29.93,29.68,6,1,10,0.01
2013-8-11,77.6,64.1,48.4,58.7,53.8,47.4,98,72,44,30.00,29.91,6,1,7,0.00
2013-8-12,80.4,66.3,52.9,62.4,57.6,52.1,98,77,43,29.95,29.84,6,1,10,0.00
2013-8-13,75.3,65.2,55.7,67.8,61.9,55.1,98,90,73,29.85,29.64,7,1,8,0.06
2013-8-14,77.4,66.5,53.8,66.7,59.4,49.2,98,80,48,29.83,29.56,4,1,17,0.00
2013-8-15,76.0,62.0,49.0,57.0,52.6,47.5,97,74,45,30.02,29.82,6,2,10,0.00
2013-8-16,77.5,63.3,48.6,63.0,54.9,48.1,98,77,47,30.12,30.01,6,1,8,0.00
2013-8-17,80.3,65.2,53.0,62.0,56.4,52.1,98,77,43,30.22,30.13,6,1,6,0.00
2013-8-18,77.9,63.6,49.2,64.2,57.7,48.4,98,83,54,30.22,29.99,5,1,8,0.00
2013-8-19,83.6,68.1,54.3,65.3,60.7,53.7,99,80,48,29.99,29.83,8,1,11,0.00
2013-8-20,84.3,70.7,58.3,68.1,62.4,57.5,98,78,48,30.01,29.89,6,1,9,0.00
2013-8-21,87.2,72.2,58.0,70.7,64.3,57.1,98,79,50,30.07,29.92,6,2,9,0.00
2013-8-22,87.3,73.0,58.5,69.1,64.8,57.7,98,78,50,29.93,29.69,8,2,10,0.00
2013-8-23,79.2,68.9,53.5,67.9,57.2,49.0,90,68,36,30.09,29.71,4,1,9,0.00
2013-8-24,79.1,62.6,47.0,57.1,50.8,45.9,97,71,34,30.25,30.09,3,0,9,0.00
2013-8-25,79.6,63.6,48.5,60.6,54.1,47.4,98,75,38,30.31,30.09,7,2,10,0.00
2013-8-26,78.9,67.0,56.7,70.5,63.4,55.0,98,89,69,30.09,29.81,5,1,8,0.18
2013-8-27,86.3,71.1,59.8,70.5,65.0,59.2,99,83,51,29.84,29.78,4,0,6,0.00
2013-8-28,84.6,70.9,62.9,71.8,65.6,62.0,98,85,57,29.95,29.81,6,1,9,0.44
2013-8-29,67.4,63.6,56.5,64.5,61.1,55.7,98,92,81,30.06,29.92,3,1,5,0.01
2013-8-30,81.5,67.2,55.1,70.6,62.7,54.5,99,87,63,29.97,29.71,6,2,11,0.00
2013-8-31,82.6,71.0,63.7,72.9,67.7,62.8,98,90,64,29.77,29.71,5,1,7,0.09
2013-9-1,79.4,72.0,69.0,73.8,70.2,68.1,99,94,75,29.85,29.70,3,0,7,0.19
2013-9-2,69.6,66.8,62.8,68.3,66.0,62.2,99,97,93,29.84,29.68,6,2,10,4.29
2013-9-3,79.2,70.3,62.7,72.3,67.7,61.2,99,92,72,29.71,29.64,7,1,10,0.01
2013-9-4,79.6,67.2,55.6,62.7,59.0,55.3,99,77,45,29.84,29.68,6,1,9,0.00
2013-9-5,69.0,58.6,45.7,60.2,51.5,43.0,97,80,42,30.08,29.80,4,0,6,0.37
2013-9-6,67.0,54.1,39.9,51.3,44.4,38.8,98,74,39,30.18,29.99,7,1,9,0.00
2013-9-7,76.7,60.0,44.9,60.3,52.8,44.1,98,80,49,29.99,29.74,7,1,10,0.01
2013-9-8,65.8,58.0,44.0,59.7,50.1,39.8,97,77,45,30.01,29.65,5,1,9,0.17
2013-9-9,67.2,53.3,36.9,53.3,45.3,36.0,98,77,47,30.15,30.01,8,2,12,0.00
2013-9-10,65.8,59.1,47.7,62.8,56.4,46.6,97,91,81,30.06,29.97,4,1,5,0.00
2013-9-11,90.9,75.3,62.8,78.9,69.2,61.9,99,83,57,29.99,29.82,10,2,19,0.14
2013-9-12,71.1,68.8,67.5,70.1,67.9,66.9,98,97,94,29.72,29.60,10,3,12,1.19
2013-9-13,67.6,64.0,55.6,66.9,63.3,55.0,99,98,96,29.66,29.53,4,1,7,1.97
2013-9-14,71.1,58.8,48.5,60.6,54.1,47.5,99,86,55,29.97,29.66,4,1,8,0.01
2013-9-15,68.5,54.9,41.7,55.8,49.5,41.2,99,84,51,30.08,29.95,7,2,10,0.00
2013-9-16,65.3,54.7,40.9,59.0,49.6,35.8,98,84,58,30.21,29.91,4,1,7,0.03
2013-9-17,67.1,49.7,33.5,48.9,41.1,32.5,98,76,43,30.36,30.22,3,1,6,0.00
2013-9-18,71.1,53.5,37.1,53.0,44.7,36.6,98,77,37,30.25,30.05,7,1,9,0.00
2013-9-19,75.6,57.1,41.6,57.8,49.1,40.8,99,78,44,30.08,29.97,6,1,8,0.00
2013-9-20,77.0,58.5,41.9,59.0,51.0,41.4,98,80,46,30.06,29.97,4,1,6,0.00
2013-9-21,65.3,59.5,51.4,62.6,57.4,50.9,99,93,80,29.98,29.70,10,4,13,0.01
2013-9-22,72.8,63.4,47.8,64.6,58.2,44.7,97,84,54,29.70,29.53,10,4,13,0.32
2013-9-23,58.4,50.8,44.5,45.8,42.1,38.7,93,73,57,29.89,29.70,5,2,13,0.00
2013-9-24,58.3,49.7,41.1,46.2,42.3,39.4,96,76,61,29.88,29.79,4,1,9,0.00
2013-9-25,63.6,52.9,41.0,51.2,46.5,39.6,97,80,58,29.93,29.82,3,0,7,0.00
2013-9-26,65.6,54.4,42.7,53.3,48.2,41.4,97,80,60,30.09,29.93,4,1,7,0.00
2013-9-27,72.0,59.4,50.1,56.6,52.5,49.0,98,79,52,30.20,30.09,3,0,5,0.00
2013-9-28,73.6,57.5,45.4,56.9,50.4,44.6,99,81,43,30.30,30.20,5,1,7,0.00
2013-9-29,67.9,52.1,42.3,55.8,46.5,41.8,98,84,49,30.22,30.08,5,1,6,0.01
2013-9-30,68.8,51.1,41.6,54.9,46.9,40.9,98,88,45,30.09,29.93,3,0,6,0.00
2013-10-1,77.5,57.1,41.6,57.7,50.0,41.1,99,81,43,29.93,29.77,3,0,4,0.01
2013-10-2,78.8,61.5,45.6,63.3,54.1,45.1,99,79,50,29.84,29.70,5,1,8,0.00
2013-10-3,76.0,58.9,43.9,56.4,49.0,43.1,98,74,39,30.01,29.84,6,1,10,0.00
2013-10-4,73.2,57.5,41.2,55.9,49.8,40.5,98,78,43,30.05,29.96,2,0,3,0.00
2013-10-5,63.4,55.3,45.3,49.8,46.3,42.7,97,73,51,30.10,30.03,2,0,3,0.00
2013-10-6,55.4,49.9,44.1,48.3,42.5,37.8,98,77,55,30.24,30.10,3,1,5,0.13
2013-10-7,67.1,58.8,48.9,65.6,57.9,47.8,98,97,93,30.16,29.74,15,4,21,0.69
2013-10-8,62.4,53.6,38.9,60.2,44.4,36.8,98,73,44,30.34,29.77,5,1,9,0.00
2013-10-9,63.1,46.2,31.2,47.9,38.9,30.4,98,79,44,30.44,30.32,5,1,8,0.00
2013-10-10,66.1,47.9,32.6,51.2,42.7,32.1,98,85,52,30.32,30.14,4,1,6,0.00
2013-10-11,68.3,53.7,42.5,57.9,49.2,42.0,99,87,57,30.14,30.08,2,0,3,0.00
2013-10-12,57.5,52.6,46.6,52.5,49.8,45.8,99,90,80,30.38,30.13,2,0,6,0.01
2013-10-13,57.6,51.2,42.7,50.2,47.2,41.9,98,87,71,30.42,30.34,4,1,6,0.00
2013-10-14,63.4,50.4,37.6,50.7,45.6,37.1,99,85,59,30.34,30.19,5,2,8,0.02
2013-10-15,66.6,56.5,48.6,55.6,51.7,47.8,98,85,63,30.24,30.15,4,1,8,0.00
2013-10-16,62.0,55.6,51.9,54.4,52.1,48.3,97,89,63,30.16,29.84,4,1,6,0.00
2013-10-17,72.5,58.2,48.2,58.8,53.9,47.4,98,87,53,29.84,29.66,4,2,6,0.00
2013-10-18,67.8,56.1,46.0,57.3,50.4,42.9,99,83,50,29.78,29.53,5,1,11,0.22
2013-10-19,64.5,50.5,37.4,50.0,44.1,36.4,97,81,45,29.88,29.69,7,2,8,0.00
2013-10-20,60.4,50.6,36.9,51.3,43.9,31.4,97,80,44,29.90,29.60,9,1,16,0.01
2013-10-21,61.8,46.8,31.0,46.6,39.3,30.0,97,78,45,30.03,29.90,6,1,9,0.00
2013-10-22,60.6,51.7,40.8,54.8,48.0,38.6,97,87,74,29.92,29.64,8,3,12,0.03
2013-10-23,47.4,39.8,35.5,40.2,37.6,34.7,98,92,74,29.71,29.54,0,0,5,0.00
2013-10-24,51.3,41.3,29.8,37.6,31.5,26.3,97,71,39,29.76,29.55,11,2,14,0.00
2013-10-25,49.0,38.5,28.2,34.9,29.6,25.0,95,72,49,30.04,29.77,5,1,6,0.00
2013-10-26,49.2,38.9,24.8,35.9,30.0,23.3,96,73,52,30.05,29.81,8,2,12,0.00
2013-10-27,55.4,45.3,33.3,40.4,35.0,26.8,91,69,46,29.95,29.72,8,3,11,0.01
2013-10-28,52.8,38.5,26.4,38.1,30.0,23.9,96,73,51,30.30,29.95,10,2,16,0.00
2013-10-29,48.0,33.1,20.8,29.1,23.1,16.0,94,71,28,30.41,30.29,6,1,8,0.00
2013-10-30,48.8,33.5,22.7,30.5,24.8,21.2,95,74,38,30.30,30.12,6,1,11,0.00
2013-10-31,57.3,37.5,23.1,56.5,36.0,21.6,99,94,84,30.20,29.72,7,1,8,0.25
2013-11-1,67.2,60.3,52.9,61.4,56.6,48.5,98,88,70,29.71,29.28,12,7,20,0.32
2013-11-2,63.6,51.1,36.8,48.6,43.6,35.8,98,78,49,29.72,29.50,6,1,14,0.05
2013-11-3,44.9,37.0,25.3,39.4,26.2,18.2,92,66,42,30.37,29.72,5,2,9,0.01
2013-11-4,41.4,29.8,21.6,23.1,18.7,16.0,88,65,36,30.67,30.38,4,1,7,0.00
2013-11-5,47.4,32.9,18.9,33.1,26.9,17.0,94,80,54,30.68,30.44,7,1,11,0.00
2013-11-6,53.9,42.6,27.7,46.9,38.8,26.7,97,87,69,30.45,29.92,8,3,12,0.00
2013-11-7,57.5,50.0,37.4,55.4,45.6,25.7,95,85,62,29.92,29.57,6,3,11,0.03
2013-11-8,45.4,38.1,29.4,28.9,25.2,22.8,79,60,46,29.93,29.71,7,2,14,0.00
2013-11-9,45.6,37.0,29.0,30.1,23.2,21.0,92,59,39,30.06,29.93,5,2,14,0.00
2013-11-10,41.1,35.4,30.8,38.7,33.6,28.8,98,93,86,30.02,29.66,2,0,7,0.05
2013-11-11,46.9,39.1,30.9,35.3,30.4,27.0,98,72,52,29.97,29.69,8,2,11,0.00
2013-11-12,40.1,32.0,27.0,32.6,20.3,14.7,79,62,50,30.06,29.76,5,2,11,0.00
2013-11-13,34.1,26.9,19.6,16.6,13.3,10.4,76,57,41,30.18,30.03,5,1,12,0.00
2013-11-14,48.9,33.7,23.0,28.9,22.5,14.2,93,65,44,30.03,29.93,4,1,8,0.00
2013-11-15,52.9,34.1,22.0,33.0,25.7,20.5,96,75,32,30.13,30.02,3,0,5,0.00
2013-11-16,58.5,37.9,28.4,33.8,29.0,24.8,96,74,29,30.29,30.12,1,0,3,0.00
2013-11-17,51.2,43.7,33.9,50.7,41.7,32.9,98,93,75,30.30,29.86,4,1,6,0.19
2013-11-18,55.9,53.6,51.9,55.3,53.0,51.1,98,98,98,29.86,29.48,9,5,13,0.05
2013-11-19,32.4,31.3,29.9,18.3,17.4,16.5,58,56,54,30.16,30.07,5,3,16,0.00
2013-11-20,40.4,30.5,20.2,16.5,14.4,11.0,79,52,30,30.58,30.16,3,1,13,0.00
2013-11-21,48.1,29.7,16.0,25.1,17.7,13.2,93,65,25,30.58,30.28,4,1,8,0.00
2013-11-22,36.8,32.2,25.6,34.5,28.3,15.8,97,86,57,30.28,29.72,2,0,2,0.01
2013-11-23,39.7,32.8,20.1,34.5,22.4,13.4,97,68,39,29.76,29.62,7,2,16,0.01
2013-11-24,25.8,20.7,16.8,21.9,6.4,1.2,85,54,42,29.96,29.63,9,5,29,0.00
2013-11-25,27.5,20.9,14.7,11.6,3.4,-0.4,56,47,35,30.25,29.95,6,2,29,0.00
2013-11-26,32.8,29.1,25.1,29.8,23.8,12.0,96,82,52,30.26,30.10,4,1,7,0.00
2013-11-27,57.5,46.3,30.9,56.9,45.4,29.9,98,97,92,30.11,29.11,14,4,24,2.71
2013-11-28,37.1,28.1,18.0,35.1,15.6,5.7,93,60,38,30.33,29.23,7,2,16,0.00
2013-11-29,27.1,18.9,12.1,10.9,8.4,4.4,88,65,40,30.69,30.33,3,1,15,0.00
2013-11-30,28.9,19.4,7.9,20.3,11.3,5.3,90,73,40,30.77,30.37,5,1,10,0.00
2013-12-1,32.7,30.8,26.9,31.6,28.0,20.0,97,90,73,30.37,30.03,4,0,8,0.01
2013-12-2,33.4,32.5,31.6,32.6,31.8,30.8,98,97,97,30.03,29.87,2,1,7,0.24
2013-12-3,43.6,34.7,29.2,40.0,33.6,27.5,98,96,84,29.88,29.80,2,0,9,0.12
2013-12-4,41.8,32.8,23.7,29.4,26.4,22.2,96,78,58,30.17,29.83,4,1,7,0.00
2013-12-5,33.9,29.7,22.3,33.1,28.5,21.0,98,95,92,30.21,29.85,2,0,4,0.03
2013-12-6,43.9,37.6,33.6,42.3,35.0,23.6,99,91,60,30.06,29.80,2,0,3,0.17
2013-12-7,37.6,31.4,21.8,28.7,18.3,8.0,88,59,42,30.36,30.01,4,1,9,0.00
2013-12-8,28.6,23.8,20.2,15.7,10.0,6.9,78,56,41,30.53,30.35,3,1,10,0.00
2013-12-9,25.3,22.8,20.4,22.7,16.7,9.6,93,78,58,30.49,29.78,3,1,10,0.00
2013-12-10,32.8,23.8,16.9,30.2,21.7,13.1,95,91,80,29.85,29.67,2,0,6,0.00
2013-12-11,28.8,17.6,7.6,18.4,12.1,5.0,95,80,50,30.07,29.85,10,2,13,0.00
2013-12-12,17.9,11.1,2.0,11.8,0.1,-5.3,82,63,37,30.19,29.94,4,1,7,0.00
2013-12-13,23.3,9.6,0.6,8.3,-0.6,-8.5,89,64,46,30.34,29.84,5,1,11,0.00
2013-12-14,14.8,5.2,-5.8,4.9,-7.1,-10.9,86,58,35,30.58,30.33,2,0,6,0.00
2013-12-15,16.3,10.6,7.1,14.1,8.0,4.3,92,89,86,30.34,29.39,7,3,16,0.00
2013-12-16,23.8,9.3,-6.4,15.1,-0.4,-10.0,92,68,33,30.16,29.60,8,2,16,0.00
2013-12-17,12.5,2.2,-16.0,5.6,-5.4,-20.4,88,71,47,30.26,30.00,3,0,9,0.00
2013-12-18,32.9,19.0,8.5,21.3,13.8,5.7,94,81,54,30.00,29.79,4,1,11,0.03
2013-12-19,31.6,23.2,12.5,24.1,19.4,10.3,94,86,73,29.95,29.86,4,1,6,0.00
2013-12-20,38.7,31.3,22.8,32.7,28.5,20.8,94,89,78,30.07,29.86,2,0,4,0.03
2013-12-21,33.7,30.7,26.8,32.0,29.4,25.6,97,95,91,29.90,29.78,2,0,5,0.02
2013-12-22,32.0,27.7,24.8,31.0,26.6,23.3,97,95,94,30.04,29.84,4,1,9,0.00
2013-12-23,32.0,28.1,25.1,31.2,27.2,24.1,97,96,96,30.07,29.92,1,0,4,0.00
2013-12-25,20.2,11.3,3.3,15.3,8.1,0.9,92,87,79,30.50,30.40,0,0,0,0.00
2013-12-26,21.5,14.6,5.2,19.7,12.6,2.7,93,92,88,30.47,30.03,0,0,0,0.00
2013-12-27,32.9,17.8,3.6,28.6,15.4,0.8,96,90,75,30.16,30.08,0,0,0,0.08
2013-12-28,37.7,23.6,10.0,33.5,21.6,8.1,97,92,83,30.12,29.89,0,0,0,0.02
2013-12-29,32.8,24.1,15.0,31.6,22.9,13.3,97,95,91,29.99,29.50,0,0,0,0.01
2013-12-30,30.8,17.2,-0.9,28.2,14.3,-4.3,97,88,73,30.13,29.47,0,0,0,0.00
2013-12-31,9.4,-0.8,-9.7,3.5,-4.6,-13.2,89,84,73,30.13,29.99,0,0,0,0.00
2014-1-1,23.5,1.7,-17.1,12.3,-3.3,-20.8,90,80,58,30.36,30.07,8,1,10,0.00
2014-1-2,4.8,-4.0,-8.6,-0.4,-8.6,-12.6,83,80,75,30.40,29.96,5,2,12,0.00